Regional Weather Roundup
Issued by NWS

Home | Current Version | Previous Version | Text Only | Print | Product List | Glossary On
Versions: 1 2 3 4 5 6 7 8 9 10 11 12 13 14 15 16 17 18 19 20 21 22 23 24 25 26 27
000
ASUS42 KTBW 210216
RWRFL
FLORIDA REGIONAL WEATHER ROUNDUP
NATIONAL WEATHER SERVICE TAMPA BAY RUSKIN FL
900 PM EST MON FEB 20 2017

NOTE: "FAIR" INDICATES FEW OR NO CLOUDS BELOW 12,000 FEET WITH NO
SIGNIFICANT WEATHER AND/OR OBSTRUCTIONS TO VISIBILITY.

FLZ001>010-012>015-112-114-115-210300-
PANHANDLE FLORIDA

CITY           SKY/WX    TMP DP  RH WIND       PRES   REMARKS
PENSACOLA      CLOUDY    66  63  90 SE6       30.07S
PENSACOLA NAS  CLOUDY    66  64  93 SE6       30.07R
MILTON NAS     LGT RAIN  61  57  87 SE7       30.08
CRESTVIEW      CLOUDY    58  55  90 CALM      30.10R
DUKE FIELD     FAIR      60  57  92 CALM      30.07S
VALPARAISO     MOCLDY    64  61  91 CALM      30.08S
PANAMA CITY    FAIR      63  59  87 E3        30.08S
TYNDALL AFB    CLEAR     62  56  81 SE5       30.09S
APALACHICOLA   CLOUDY    61  61 100 CALM      30.09S

STATION/POSITION SKY/WX   TEMP    WIND        PRES    WAVE   SWELL
                          AIR SEA DIR/SP/G            HT/PER HT/PER
                          (F)     (DEG/KT/KT) (MB)    (FT/S) (FT/S)
30.1N   87.6W              69 68  130/ 12/ 14 1017.7F   3/ 5   2/ 6
28.8N   86.0W              70 71              1018.9R   2/ 4
PANAMA CITY BEAC           68     150/ 12/ 14 1018.9F
TOWER C                    67     160/  6/  6 1019.6F
28.5N   84.5W              70 70  140/  8/  8 1019.1R   1/ 7   2/ 7

$$
FLZ011-016>038-118-127-128-134-139-239-210300-
NORTH FLORIDA

CITY           SKY/WX    TMP DP  RH WIND       PRES   REMARKS
MARIANNA       CLEAR     69  57  65 S3        30.08S
TALLAHASSEE    CLOUDY    64  55  72 CALM      30.10S
PERRY          CLOUDY    62  56  83 CALM      30.11S
CROSS CITY     PTCLDY    61  55  82 CALM      30.11R
LAKE CITY      FAIR      64  55  72 E7        30.12S
GAINESVILLE    PTCLDY    66  53  63 E7        30.13R
WILLISTON      CLEAR     70  57  64 E5        30.11S
PALATKA        FAIR      63  63 100 E6        30.14S
MAYPORT NAS    PTCLDY    64  61  90 NE7       30.15R
JACKSONVILLE   CLOUDY    58  57  97 NE3       30.14S
JAX NAS        CLOUDY    66  60  81 NE7       30.15R
FERNANDINA BEA FAIR      63  61  94 E5        30.14S
ST AUGUSTINE   CLOUDY    66  62  87 NE6       30.15S

STATION/POSITION SKY/WX   TEMP    WIND        PRES    WAVE   SWELL
                          AIR SEA DIR/SP/G            HT/PER HT/PER
                          (F)     (DEG/KT/KT) (MB)    (FT/S) (FT/S)
SHELL POINT      NOT AVBL
KEATON BEACH               66      CALM  /  1 1019.2R
CEDAR KEY                  68     300/  4/  6 1020.0R
FERNANDINA                 63 67   70/  2/  5 1021.6R
30.7N   81.3W                 64                N/A     1/ 5
MAYPORT                    65 66   70/  7/ 10 1021.2R
31.4N   80.9W              62 62   80/  6/  8 1021.2R   1/ 6
ST AUGUSTINE               67 69   60/  9/ 10 1021.5R

$$
FLZ040-043>046-052-053-057-058-063-144-210300-
INTERIOR CENTRAL FLORIDA

CITY           SKY/WX    TMP DP  RH WIND       PRES   REMARKS
OCALA          PTCLDY    70  55  60 E3        30.12S
THE VILLAGES     N/A     70  66  88 SE9       30.02S
LEESBURG       CLEAR     70  61  73 E7        30.13R
SANFORD        CLEAR     66  62  87 E5        30.13S
ORLANDO EXEC   CLEAR     68  64  87 E8        30.13S
ORLANDO INTL   CLEAR     68  63  84 E6        30.13S
KISSIMMEE      CLEAR     69  63  81 E8        30.14R
WINTER HAVEN   CLEAR     70  60  70 E12       30.13R
LAKELAND       CLEAR     70  63  78 E8        30.11R
BARTOW         FAIR      68  61  77 E8        30.12S
OKEECHOBEE     CLEAR     63  59  88 E3        30.13S

$$
FLZ041-047-054-059-064-141-147-210300-
EAST CENTRAL FLORIDA

CITY           SKY/WX    TMP DP  RH WIND       PRES   REMARKS
DAYTONA BEACH  NOT AVBL
DELAND         CLEAR     64  61  88 CALM      30.13S
NEW SMYRNA BEA CLEAR     68  66  94 NE9       30.14R
JFK SPACE CTR  CLEAR     64  64 100 E3        30.12S FOG
TITUSVILLE     CLEAR     68  66  94 NE6       30.14S
CAPE CANAVERAL CLEAR     63  61  94 CALM      30.12S
PATRICK AFB    CLEAR     70  66  88 E6        30.12F
MELBOURNE      CLEAR     70  63  78 E5        30.13S
VERO BEACH     CLEAR     67  61  81 E5        30.13S
FT PIERCE      CLEAR     61  60  97 CALM      30.13R
STUART         CLEAR     75  63  64 NE6       30.13S

STATION/POSITION SKY/WX   TEMP    WIND        PRES    WAVE   SWELL
                          AIR SEA DIR/SP/G            HT/PER HT/PER
                          (F)     (DEG/KT/KT) (MB)    (FT/S) (FT/S)
TRIDENT PIER               66 72   40/  2/  2 1021.5R
28.4N   80.5W                 71                N/A     2/ 5
27.5N   80.2W                 72                N/A     2/ 6

$$
FLZ050-056-061-142-242-148-248-149-249-151-251-155-255-
160-260-210300-
WEST CENTRAL FLORIDA

CITY           SKY/WX    TMP DP  RH WIND       PRES   REMARKS
CRYSTAL RIVER  FAIR      61  59  94 CALM      30.11S
INVERNESS      FAIR      63  59  88 CALM      30.11S
BROOKSVILLE    CLEAR     62  59  90 NW3       30.11S
CLEARWATER AIR FAIR      64  63  94 CALM      30.10S
ST PETE CLEARW CLEAR     68  61  78 NW3       30.11S
TAMPA INTL     CLEAR     70  60  70 NW3       30.11S
TAMPA EXEC     CLEAR     68  59  73 NW3       30.11S
PLANT CITY     CLEAR     70  59  68 S5        30.13R
MACDILL AFB    CLEAR     66  64  92 N5        30.10S
PETER O KNIGHT CLEAR     72  63  73 CALM      30.11R
ST PETERSBURG  CLEAR     69  62  78 N6        30.09S
SARASOTA       CLEAR     67  62  84 N3        30.09S
VENICE         FAIR      68  64  88 NE3       30.11R

STATION/POSITION SKY/WX   TEMP    WIND        PRES    WAVE   SWELL
                          AIR SEA DIR/SP/G            HT/PER HT/PER
                          (F)     (DEG/KT/KT) (MB)    (FT/S) (FT/S)
27.3N   84.2W                 71                N/A     2/ 7
CLEARWATER BEACH           69 76  360/  4/  5 1019.6S
MIDDLE TAMPA BAY           70      10/  5/  5 1019.6F
VENICE                     69 71   40/  4/  5 1018.9R

$$
FLZ066-069-070-075>078-162-262-165-265-210300-
SOUTHWEST FLORIDA AND KEYS

CITY           SKY/WX    TMP DP  RH WIND       PRES   REMARKS
PUNTA GORDA    MOCLDY    67  60  78 E5        30.12R
FT MYERS       PTCLDY    71  64  78 NE3       30.10R
SOUTHWEST INTL CLEAR     68  61  78 NE3       30.11R
NAPLES         CLEAR     70  66  87 CALM      30.09S
MARCO ISLAND   PTCLDY    70  64  83 CALM      30.10S
MARATHON       CLEAR     76  65  68 E8        30.08F
KEY WEST INTL  CLEAR     76  64  66 SE9       30.09R

STATION/POSITION SKY/WX   TEMP    WIND        PRES    WAVE   SWELL
                          AIR SEA DIR/SP/G            HT/PER HT/PER
                          (F)     (DEG/KT/KT) (MB)    (FT/S) (FT/S)
NAPLES                        74              1019.0S
26.0N   85.6W              75 75  110/ 12/ 14 1018.1R   2/ 5   2/ 6
DRY TORTUGAS               75     120/ 10/ 12 1018.6R
SAND KEY                   76     130/ 14/ 16 1019.1R
LONG KEY                   75 77   90/ 12/ 14 1019.1F

$$
FLZ067-068-071>074-168-172>174-210300-
SOUTHEAST FLORIDA

CITY           SKY/WX    TMP DP  RH WIND       PRES   REMARKS
W PALM BEACH   PTCLDY    74  59  59 E7        30.12S
BOCA RATON     PTCLDY    73  61  64 E7        30.11S
FT LAUDER-EXEC CLEAR     74  59  59 NE7       30.10S
FT LAUDERDALE  PTCLDY    73  61  65 E9        30.10S
POMPANO BEACH  PTCLDY    73  61  65 NE8       30.11S
PEMBROKE PINES CLEAR     71  60  68 E7        30.11F
OPA LOCKA      CLEAR     72  61  68 NE7       30.11S
MIAMI          PTCLDY    71  61  70 NE6       30.10S
WEST KENDALL   CLEAR     69  61  75 E10       30.10S
HOMESTEAD      CLEAR     72  65  78 E10       30.09S

STATION/POSITION SKY/WX   TEMP    WIND        PRES    WAVE   SWELL
                          AIR SEA DIR/SP/G            HT/PER HT/PER
                          (F)     (DEG/KT/KT) (MB)    (FT/S) (FT/S)
PORT EVERGLADES            74      50/ 11/ 14 1019.4S
VIRGINIA KEY               74 82   60/  9/ 13 1019.7R
LAKE WORTH                         70/  9/ 12   N/A
FOWEY ROCKS                74 76   50/ 16/ 17 1019.9R

$$





USA.gov is the U.S. government's official web portal to all federal, state and local government web resources and services.